Regional Weather Roundup
Issued by NWS Cleveland, OH

Home | Current Version | Previous Version | Graphics & Text | Print | Product List | Glossary On
Versions: 1 2 3 4 5 6 7 8 9 10 11 12 13 14 15 16 17 18 19 20 21 22 23 24 25 26 27 28 29 30 31 32 33 34 35 36 37 38 39 40 41 42 43 44 45 46 47 48 49 50
000
ASUS41 KCLE 281602
RWRCLE
OHIO REGIONAL WEATHER ROUNDUP
NATIONAL WEATHER SERVICE CLEVELAND, OH
1200 PM EDT THU MAY 28 2015

NOTE: "FAIR" INDICATES FEW OR NO CLOUDS BELOW 12,000 FEET WITH NO
SIGNIFICANT WEATHER AND/OR OBSTRUCTIONS TO VISIBILITY.

OHZ001>008-015>018-024>027-034-035-043-044-281700-
   NORTHWEST OHIO

CITY           SKY/WX    TMP DP  RH WIND       PRES   REMARKS
DEFIANCE       SUNNY     74  59  59 SE8       30.26S
FINDLAY        SUNNY     75  59  57 E8        30.26R
TOLEDO EXPRESS SUNNY     73  57  57 VRB6      30.27R
TOLEDO EXEC    SUNNY     73  57  57 SE8       30.28R
LIMA           MOSUNNY   75  61  61 E6        30.26R
$$

OHZ009>014-019>023-028>033-038-089-281700-
   NORTHEAST OHIO

CITY           SKY/WX    TMP DP  RH WIND       PRES   REMARKS
CLE-HOPKINS    MOSUNNY   74  56  53 SE7       30.28S
CLE-LAKEFRONT  SUNNY     66  57  72 N10       30.27R
CUY CO. ARPT   SUNNY     73  55  53 E10       30.28R
LORAIN-ELYRIA  SUNNY     72  56  57 CALM      30.28R
ASHTABULA      MOSUNNY   70  56  61 CALM      30.29R
AKRON-CANTON   PTSUNNY   73  56  54 E10       30.27R
WOOSTER        MOSUNNY   72  58  61 SE7       30.28R
MANSFIELD      SUNNY     73  57  57 E7        30.28R
YOUNGSTOWN     PTSUNNY   71  55  56 E6        30.28R
$$

OHZ042-051>053-060>062-070>072-077>081-281700-
  SOUTHWEST OHIO

CITY           SKY/WX    TMP DP  RH WIND       PRES   REMARKS
CINC-COVINGTON PTSUNNY   74  66  76 SE5       30.23S
CINC-LUNKEN    PTSUNNY   72  66  81 SW6       30.23S
HAMILTON       PTSUNNY   75  65  70 CALM      30.24R
DAYTON         MOSUNNY   77  66  68 S7        30.25R
WRIGHT-PAT AFB MOSUNNY   76  66  71 VRB5      30.23S
DAYTON GENERAL PTSUNNY   73  65  75 VRB6      30.24R
WILMINGTON     MOSUNNY   75  64  68 SE8       30.24S
$$

OHZ036-037-039>041-045>050-054>059-063>069-073>076-082>088-281700-
  CENTRAL AND SOUTHEAST OHIO

CITY           SKY/WX    TMP DP  RH WIND       PRES   REMARKS
COLUMBUS       PTSUNNY   76  63  64 VRB5      30.24R
OSU AIRPORT    MOSUNNY   77  63  61 SE7       30.25R
BOLTON FIELD   MOSUNNY   75  66  73 E6        30.25R
RICKENBACK AFB NOT AVBL
NEWARK         CLOUDY    76  63  64 E7        30.25R
MARION         SUNNY     75  61  61 E6        30.27R
LANCASTER      PTSUNNY   75  64  68 VRB3      30.25R
ZANESVILLE     NOT AVBL
NEW PHILLY     PTSUNNY   75  63  66 SW3       30.27R
$$



USA.gov is the U.S. government's official web portal to all federal, state and local government web resources and services.